FENGYUN 1C DEB, 30119

Orbit data source: Space-Track

FENGYUN 1C DEB, 30119 is space debris in SSO originally from a launch on Mon, 10 May 1999 UTC launched from the Taiyaun Space Center, China (TSC). Fengyun 1C debris stems from the Chinese weather satellite Fengyun-1C, which was intentionally destroyed by a Chinese anti-satellite missile in 2007. This event dramatically increased the amount of space debris, with thousands of trackable fragments posing hazards to satellites and human spaceflight. The Fengyun 1C debris cloud has become a focal point in discussions about space sustainability and the need for international regulations to prevent the creation of new debris.

Loading next visibility...
Identifier
30119, 1999-025RY
Orbit
SSO
Country
Flag of CNCN / PRC
Related business
Manufacturer
Unknown
Mission
Spacecraft
Bus & Motor
Unknown
Mass
Unknown
Launch date (UTC)
1999-05-10 (26 years ago)
Launch vehicle
Unknown
Launch site
Taiyaun Space Center, China (TSC)
Object type
Payload
Rocket body
Debris
Shape & HBR
Unknown shape, 0.1 m
Radar Cross Section
Small (<0.1 m²)

Expand to show TLE details & history
Last TLE update: 7 hours ago

TLE from 7 hours ago
0 FENGYUN 1C DEB
1 30119U 99025RY  25302.96834054  .00004766  00000-0  19936-2 0  9993
2 30119  97.9206 301.3785 0134078  62.0097 352.3414 14.21717988965586
Epoch: 2025-10-29T23:14Z
TLE epoch observation values (Epoch: 2025-10-29T23:14:24.622Z)
Latitude
53.49527°
Longitude
-96.53446°
Altitude
732.662 km
Speed
7.544 km/s
True Right ascension
19h 22m 24s
True Declination
53° 19' 48"
Sunlit
Object was in daylight at epoch
Visualization orbit readout
Latitude
Unknown
Longitude
Unknown
Altitude
Unknown
Speed
Unknown
Apparent Right ascension
Unknown
Apparent Declination
Unknown
Sunlit
N/A
Visualization observer readout
Local Sidereal Time
01:53:52
Azimuth
Unknown
Elevation
Unknown
Doppler factor
Unknown
Orbital elements
Apogee altitude
913.134 km
Perigee altitude
720.201 km
Semi-major axis
7,194.805 km
Eccentricity
0.01341
Inclination
97.9206°
RAAN
301.3785°
Arg. of periapsis
62.0097°
True anomaly
352.13319°
Mean anomaly
352.3414°
Eccentric anomaly
352.23764°
Mean motion
3.55643 °/min
Orbital period
101.23 mins
BSTAR
0.0019936
Loading maneuver chart data...
Computing Atmospheric mass density...

Documentation

Showing up to 5 results
|